Scarborough,

9:56 AM AST on November 24, 2017 (GMT -0400)
Scarborough

Weather History for TTCP - October, 2014

Change the Weather History Date:

Wednesday, October 15, 2014

  Actual Average Record
Temperature  
Mean Temperature 82 °F -  
Max Temperature 87 °F 84 °F 91 °F (2005)
Min Temperature 77 °F 76 °F 73 °F (2011)
Cooling Degree Days 17    
Growing Degree Days 32 (Base 50)    
Moisture  
Dew Point 73 °F    
Average Humidity 72    
Maximum Humidity 84    
Minimum Humidity 62    
Precipitation  
Precipitation 0.00 in - - ()
Sea Level Pressure  
Sea Level Pressure 29.95 in    
Wind  
Wind Speed 3 mph ()    
Max Wind Speed 13 mph    
Max Gust Speed -    
Visibility 6.1 miles    
Events Rain    
Averages and records for this station are not official NWS values.
T = Trace of Precipitation, MM = Missing Value Source: Averaged Metar Reports

Daily Weather History Graph

Daily Weather History Graph

Search for Another Location

Airport or City:

Trip Planner

Search our weather history database for the weather conditions in past years. The results will help you decide how hot, cold, wet, or windy it might be!

Date:

Astronomy

Oct. 15, 2014 Rise Set
Actual Time 5:52 AM AST 5:45 PM AST
Civil Twilight 5:31 AM AST 6:06 PM AST
Nautical Twilight 5:06 AM AST 6:31 PM AST
Astronomical Twilight 4:42 AM AST 6:56 PM AST
Moon No Moon Rise 12:06 PM AST (10/15)
Length of Visible Light 12h 35m
Length of Day
11h 53m
Waning Gibbous, 51% of the Moon is Illuminated
Oct 15
Waning Gibbous
Oct 15
Last Quarter
Oct 23
New
Oct 30
First Quarter
Nov 6
Full

Hourly Weather History & Observations

Time (AST) Temp. Heat Index Dew Point Humidity Pressure Visibility Wind Dir Wind Speed Gust Speed Precip Events Conditions
12:00 AM 80.6 °F 85.4 °F 73.4 °F 79% 29.98 in 6.2 mi Calm Calm - N/A   Partly Cloudy
1:00 AM 78.8 °F - 73.4 °F 83% 29.95 in 6.2 mi Calm Calm - N/A   Partly Cloudy
3:00 AM 78.8 °F - 73.4 °F 83% 29.92 in 6.2 mi Calm Calm - N/A   Partly Cloudy
5:00 AM 78.8 °F - 73.4 °F 83% 29.95 in 6.2 mi Calm Calm - N/A   Partly Cloudy
6:00 AM 77.0 °F - 71.6 °F 83% 29.95 in 6.2 mi Calm Calm - N/A   Partly Cloudy
7:00 AM 80.6 °F 84.6 °F 71.6 °F 74% 29.98 in 6.2 mi Calm Calm - N/A   Partly Cloudy
8:00 AM 84.2 °F 90.9 °F 73.4 °F 70% 30.01 in 6.2 mi Calm Calm - N/A   Partly Cloudy
9:00 AM 86.0 °F 95.1 °F 75.2 °F 70% 30.01 in 6.2 mi ESE 9.2 mph - N/A   Partly Cloudy
10:00 AM 87.8 °F 95.6 °F 73.4 °F 62% 30.01 in 6.2 mi ESE 11.5 mph - N/A   Partly Cloudy
11:00 AM 87.8 °F 95.6 °F 73.4 °F 62% 30.01 in 6.2 mi ESE 12.7 mph - N/A   Partly Cloudy
12:00 PM 87.8 °F 95.6 °F 73.4 °F 62% 29.98 in 6.2 mi ESE 12.7 mph - N/A   Partly Cloudy
1:00 PM 87.8 °F 95.6 °F 73.4 °F 62% 29.95 in 5.6 mi SE 11.5 mph - N/A   Partly Cloudy
2:00 PM 86.0 °F 95.1 °F 75.2 °F 70% 29.92 in 5.0 mi SE 11.5 mph - N/A Rain Light Rain Showers
3:00 PM 87.8 °F 95.6 °F 73.4 °F 62% 29.92 in 6.2 mi ESE 11.5 mph - N/A   Partly Cloudy
4:00 PM 86.0 °F 91.8 °F 71.6 °F 62% 29.92 in 6.2 mi SE 9.2 mph - N/A   Partly Cloudy
5:00 PM 86.0 °F 93.4 °F 73.4 °F 66% 29.89 in 6.2 mi East 9.2 mph - N/A   Partly Cloudy
6:00 PM 82.4 °F 87.2 °F 71.6 °F 70% 29.92 in - East 8.1 mph - N/A   Unknown
7:00 PM 82.4 °F 87.2 °F 71.6 °F 70% 29.92 in - East 4.6 mph - N/A   Unknown
8:00 PM 80.6 °F 86.2 °F 75.2 °F 84% 29.92 in 6.2 mi Calm Calm - N/A   Partly Cloudy
9:00 PM 80.6 °F 84.6 °F 71.6 °F 74% 29.95 in 6.2 mi Calm Calm - N/A   Partly Cloudy
10:00 PM 78.8 °F - 71.6 °F 78% 29.95 in 6.2 mi Calm Calm - N/A   Partly Cloudy
11:00 PM 78.8 °F - 71.6 °F 78% 29.95 in 6.2 mi Calm Calm - N/A   Partly Cloudy